Location: *
(40.9167°N, 9.5000°E)
Time: 08:46:55
(UTC+00:00)

Cosmos 1340 Rocket - Pass Details

Date: 09 April 2020
Orbit: 529 x 559 km, 81.2° (Epoch: 03 June)

Event Time Altitude Azimuth Distance (km) Brightness Sun altitude
Rises 19:02:11 0° 185° (S) 2,726 6.2 -12.8°
Reaches altitude 10° 19:04:21 10° 183° (S) 1,833 5.3 -13.2°
Maximum altitude 19:08:23 77° 98° (E) 572 2.7 -13.9°
Drops below altitude 10° 19:12:25 10° 12° (NNE) 1,832 5.6 -14.6°
Sets 19:14:35 0° 11° (NNE) 2,726 6.5 -15.0°
